Weather History for Peoria, IL

Change the Weather History Date:

Wednesday, December 28, 2011

  Actual Average Record
Temperature  
Mean Temperature 30 °F 26 °F  
Max Temperature 36 °F 33 °F 70 °F (1984)
Min Temperature 23 °F 18 °F -24 °F (1924)
Degree Days  
Heating Degree Days 35 39  
Month to date heating degree days 844 1011  
Since 1 July heating degree days 1884 2159  
Cooling Degree Days 0 0  
Month to date cooling degree days 0 0  
Year to date cooling degree days 1265 1039  
Moisture  
Dew Point 25 °F    
Average Humidity 80    
Maximum Humidity 96    
Minimum Humidity 64    
Precipitation  
Precipitation 0.00 in 0.06 in 1.07 in (1884)
Month to date precipitation 2.75 2.22  
Year to date precipitation 39.74 36.29  
Snow  
Snow 0.00 in 0.30 in 3.50 in (1983)
Month to date snowfall 0.6 6.4  
Since 1 July snowfall 0.6 7.5  
Snow Depth 0.00 in    
Sea Level Pressure  
Sea Level Pressure 30.01 in    
Wind  
Wind Speed 5 mph (SSW)    
Max Wind Speed 13 mph    
Max Gust Speed 16 mph    
Visibility 10 miles    
Events      
T = Trace of Precipitation, MM = Missing Value Source: NWS Daily Summary

Daily Weather History Graph

Daily Weather History Graph

Search for Another Location

Airport:

Trip Planner

Search our weather history database for the weather conditions in past years. The results will help you decide how hot, cold, wet, or windy it might be!

Date:

Astronomy

Dec. 28, 2011 Rise Set
Actual Time 7:21 AM CST 4:38 PM CST
Civil Twilight 6:50 AM CST 5:09 PM CST
Nautical Twilight 6:16 AM CST 5:44 PM CST
Astronomical Twilight 5:43 AM CST 6:17 PM CST
Moon 9:46 AM CST (12/28) 9:16 PM CST (12/28)
Length of Visible Light 10h 18m
Length of Day
9h 16m
Waxing Crescent, 18% of the Moon is Illuminated
Dec 28
Waxing Crescent
Jan 1
First Quarter
Jan 9
Full
Jan 16
Last Quarter
Jan 23
New

Hourly Weather History & Observations

Time (CST) Temp. Windchill Dew Point Humidity Pressure Visibility Wind Dir Wind Speed Gust Speed Precip Events Conditions
12:54 AM 27.0 °F - 21.9 °F 81% 30.07 in 10.0 mi Calm Calm - N/A   Clear
1:54 AM 28.0 °F - 21.9 °F 78% 30.06 in 10.0 mi Calm Calm - N/A   Clear
2:54 AM 27.0 °F - 21.9 °F 81% 30.06 in 10.0 mi Calm Calm - N/A   Clear
3:54 AM 25.0 °F 20.7 °F 21.0 °F 85% 30.08 in 10.0 mi West 3.5 mph - N/A   Mostly Cloudy
4:54 AM 23.0 °F - 19.9 °F 88% 30.08 in 10.0 mi Calm Calm - N/A   Mostly Cloudy
5:54 AM 23.0 °F - 21.0 °F 92% 30.09 in 10.0 mi Calm Calm - N/A   Overcast
6:54 AM 24.1 °F - 21.0 °F 88% 30.08 in 10.0 mi Calm Calm - N/A   Overcast
7:54 AM 25.0 °F 20.7 °F 21.9 °F 88% 30.09 in 10.0 mi West 3.5 mph - N/A   Overcast
8:54 AM 27.0 °F - 24.1 °F 89% 30.09 in 10.0 mi Calm Calm - N/A   Mostly Cloudy
9:54 AM 28.9 °F 25.2 °F 24.1 °F 82% 30.12 in 10.0 mi West 3.5 mph - N/A   Partly Cloudy
10:54 AM 30.9 °F 27.5 °F 25.0 °F 79% 30.10 in 10.0 mi WSW 3.5 mph - N/A   Overcast
11:54 AM 33.8 °F 29.6 °F 24.8 °F 70% 30.03 in 10.0 mi SSW 4.6 mph - N/A   Overcast
12:54 PM 35.1 °F 29.3 °F 25.0 °F 67% 30.03 in 10.0 mi SSW 6.9 mph - N/A   Mostly Cloudy
1:54 PM 35.1 °F 27.9 °F 26.1 °F 70% 30.00 in 10.0 mi South 9.2 mph - N/A   Overcast
2:54 PM 35.1 °F 27.9 °F 26.1 °F 70% 29.99 in 10.0 mi SSE 9.2 mph - N/A   Overcast
3:54 PM 35.6 °F 29.9 °F 26.6 °F 70% 29.96 in 10.0 mi SE 6.9 mph - N/A   Overcast
4:54 PM 33.1 °F 27.7 °F 26.1 °F 75% 29.98 in 10.0 mi South 5.8 mph - N/A   Scattered Clouds
5:54 PM 33.1 °F 25.5 °F 27.0 °F 78% 29.97 in 10.0 mi South 9.2 mph - N/A   Clear
6:54 PM 32.0 °F 24.8 °F 28.0 °F 85% 29.97 in 6.0 mi South 8.1 mph - N/A   Clear
7:54 PM 32.0 °F 24.8 °F 28.0 °F 85% 29.94 in 7.0 mi South 8.1 mph - N/A   Clear
8:54 PM 33.1 °F 25.5 °F 28.9 °F 85% 29.90 in 8.0 mi South 9.2 mph - N/A   Clear
9:54 PM 33.1 °F 24.9 °F 30.0 °F 89% 29.87 in 10.0 mi South 10.4 mph - N/A   Clear
10:54 PM 34.0 °F 26.0 °F 30.0 °F 85% 29.85 in 10.0 mi SSW 10.4 mph - N/A   Clear
11:54 PM 33.1 °F 26.1 °F 28.9 °F 85% 29.84 in 10.0 mi South 8.1 mph - N/A   Clear